| time (UTC) | temp F | wind direction | speed MPH | gust MPH | rain 1hr in | rain 24hr in | rain mn in | humidity % | barometer mb |
| 20260901230030 | 63 | 0.0 | 0.0 | 0.00 | 0.29 | 0.29 | 95 | 1018.7 | |
| 20260901225030 | 63 | 70 | 0.0 | 1.0 | 0.00 | 0.29 | 0.29 | 95 | 1018.6 |
| 20260901224030 | 63 | 94 | 0.0 | 0.0 | 0.00 | 0.29 | 0.29 | 95 | 1018.5 |
| 20260901223031 | 63 | 122 | 0.0 | 1.0 | 0.00 | 0.29 | 0.29 | 95 | 1018.6 |
| 20260901222016 | 63 | 86 | 0.0 | 1.0 | 0.00 | 0.29 | 0.29 | 94 | 1018.8 |
| 20260901221031 | 64 | 84 | 0.0 | 1.0 | 0.00 | 0.29 | 0.29 | 95 | 1018.7 |
| 20260901220031 | 64 | 120 | 0.0 | 1.0 | 0.00 | 0.29 | 0.29 | 95 | 1018.6 |
| 20260901215032 | 64 | 139 | 1.0 | 2.0 | 0.00 | 0.29 | 0.29 | 95 | 1018.5 |
| 20260901214032 | 64 | 121 | 1.0 | 2.0 | 0.00 | 0.29 | 0.29 | 96 | 1018.4 |
| 20260901213032 | 64 | 188 | 0.0 | 1.0 | 0.00 | 0.29 | 0.29 | 96 | 1018.4 |
| 20260901212032 | 64 | 260 | 0.0 | 1.0 | 0.00 | 0.29 | 0.29 | 96 | 1018.6 |
| 20260901211017 | 64 | 256 | 0.0 | 2.0 | 0.00 | 0.29 | 0.29 | 95 | 1018.6 |
| 20260901210017 | 64 | 226 | 0.0 | 2.0 | 0.00 | 0.29 | 0.29 | 95 | 1018.5 |
| 20260901205018 | 64 | 211 | 0.0 | 1.0 | 0.00 | 0.29 | 0.29 | 96 | 1018.3 |
| 20260901204037 | 63 | 217 | 0.0 | 1.0 | 0.00 | 0.29 | 0.29 | 95 | 1018.1 |
| 20260901203038 | 63 | 154 | 1.0 | 2.0 | 0.00 | 0.29 | 0.29 | 95 | 1018.0 |
| 20260901202038 | 64 | 202 | 1.0 | 1.0 | 0.01 | 0.29 | 0.29 | 95 | 1018.0 |
| 20260901201018 | 64 | 162 | 1.0 | 2.0 | 0.02 | 0.29 | 0.29 | 95 | 1017.9 |
| 20260901200018 | 64 | 163 | 2.0 | 3.0 | 0.03 | 0.29 | 0.29 | 95 | 1017.9 |
| 20260901195018 | 64 | 166 | 1.0 | 4.0 | 0.03 | 0.29 | 0.29 | 95 | 1017.8 |
| 20260901194018 | 65 | 156 | 1.0 | 3.0 | 0.03 | 0.29 | 0.29 | 95 | 1017.9 |
| 20260901193018 | 65 | 124 | 2.0 | 4.0 | 0.03 | 0.29 | 0.29 | 95 | 1017.9 |
| 20260901192019 | 66 | 150 | 2.0 | 4.0 | 0.03 | 0.28 | 0.28 | 95 | 1017.8 |
| 20260901191018 | 66 | 165 | 2.0 | 5.0 | 0.02 | 0.27 | 0.27 | 95 | 1017.8 |
| 20260901190018 | 66 | 198 | 0.0 | 1.0 | 0.01 | 0.26 | 0.26 | 95 | 1017.8 |
| 20260901185019 | 66 | 168 | 1.0 | 2.0 | 0.01 | 0.26 | 0.26 | 95 | 1017.8 |
| 20260901184019 | 66 | 128 | 0.0 | 1.0 | 0.01 | 0.26 | 0.26 | 95 | 1017.9 |
| 20260901183019 | 66 | 106 | 0.0 | 0.0 | 0.03 | 0.25 | 0.25 | 95 | 1017.8 |
| 20260901182019 | 66 | 293 | 1.0 | 2.0 | 0.03 | 0.25 | 0.25 | 95 | 1017.6 |
| 20260901181020 | 67 | 88 | 0.0 | 1.0 | 0.04 | 0.25 | 0.25 | 95 | 1017.5 |
| 20260901180020 | 67 | 163 | 1.0 | 2.0 | 0.06 | 0.25 | 0.25 | 95 | 1017.4 |
| 20260901175039 | 67 | 291 | 0.0 | 2.0 | 0.06 | 0.25 | 0.25 | 95 | 1017.4 |
| 20260901174020 | 67 | 359 | 0.0 | 1.0 | 0.05 | 0.24 | 0.24 | 94 | 1017.4 |
| 20260901173020 | 67 | 150 | 1.0 | 2.0 | 0.04 | 0.23 | 0.23 | 94 | 1017.4 |
| 20260901172020 | 67 | 171 | 0.0 | 2.0 | 0.03 | 0.22 | 0.22 | 93 | 1017.4 |
| 20260901171020 | 67 | 151 | 1.0 | 2.0 | 0.03 | 0.22 | 0.22 | 92 | 1017.4 |
| 20260901170041 | 68 | 68 | 0.0 | 1.0 | 0.01 | 0.19 | 0.19 | 91 | 1017.5 |
| 20260901165020 | 68 | 271 | 0.0 | 3.0 | 0.00 | 0.19 | 0.19 | 91 | 1017.5 |
| 20260901164040 | 68 | 63 | 0.0 | 1.0 | 0.00 | 0.19 | 0.19 | 90 | 1017.6 |
| 20260901163021 | 68 | 129 | 1.0 | 3.0 | 0.00 | 0.19 | 0.19 | 90 | 1017.5 |
| 20260901162021 | 68 | 137 | 1.0 | 2.0 | 0.00 | 0.19 | 0.19 | 90 | 1017.4 |
| 20260901161021 | 69 | 139 | 2.0 | 5.0 | 0.00 | 0.19 | 0.19 | 89 | 1017.4 |
| 20260901160021 | 69 | 108 | 1.0 | 3.0 | 0.00 | 0.19 | 0.19 | 90 | 1017.2 |
| 20260901155021 | 69 | 114 | 0.0 | 2.0 | 0.00 | 0.19 | 0.19 | 92 | 1017.3 |
| 20260901154021 | 69 | 102 | 1.0 | 2.0 | 0.00 | 0.19 | 0.19 | 91 | 1017.4 |
| 20260901153022 | 69 | 142 | 1.0 | 2.0 | 0.00 | 0.19 | 0.19 | 90 | 1017.4 |
| 20260901152041 | 69 | 142 | 1.0 | 3.0 | 0.00 | 0.19 | 0.19 | 89 | 1017.5 |
| 20260901151021 | 69 | 96 | 1.0 | 2.0 | 0.00 | 0.19 | 0.19 | 92 | 1017.5 |
| 20260901150022 | 68 | 126 | 1.0 | 3.0 | 0.00 | 0.19 | 0.19 | 93 | 1017.6 |
| 20260901145022 | 68 | 119 | 1.0 | 3.0 | 0.00 | 0.19 | 0.19 | 93 | 1017.5 |
| 20260901144042 | 68 | 161 | 1.0 | 2.0 | 0.00 | 0.19 | 0.19 | 94 | 1017.5 |
| 20260901143022 | 68 | 147 | 1.0 | 2.0 | 0.00 | 0.19 | 0.19 | 95 | 1017.6 |
| 20260901142023 | 67 | 134 | 1.0 | 2.0 | 0.01 | 0.19 | 0.19 | 95 | 1017.8 |
| 20260901141022 | 67 | 89 | 0.0 | 1.0 | 0.02 | 0.19 | 0.19 | 96 | 1017.8 |
| 20260901140023 | 67 | 118 | 1.0 | 2.0 | 0.03 | 0.19 | 0.19 | 96 | 1017.8 |
| 20260901135023 | 66 | 171 | 1.0 | 3.0 | 0.05 | 0.19 | 0.19 | 96 | 1018.0 |
| 20260901134023 | 66 | 150 | 0.0 | 0.0 | 0.08 | 0.19 | 0.19 | 96 | 1018.1 |
| 20260901133023 | 66 | 179 | 0.0 | 1.0 | 0.11 | 0.19 | 0.19 | 96 | 1018.2 |
| 20260901132023 | 65 | 111 | 0.0 | 1.0 | 0.15 | 0.18 | 0.18 | 96 | 1018.0 |
| 20260901131023 | 65 | 0.0 | 0.0 | 0.16 | 0.16 | 0.16 | 96 | 1018.0 | |
| 20260901130023 | 65 | 0.0 | 0.0 | 0.16 | 0.16 | 0.16 | 96 | 1017.9 | |
| 20260901125044 | 65 | 99 | 0.0 | 0.0 | 0.14 | 0.14 | 0.14 | 95 | 1018.0 |
| 20260901124024 | 65 | 324 | 0.0 | 1.0 | 0.11 | 0.11 | 0.11 | 95 | 1017.9 |
| 20260901123023 | 65 | 66 | 0.0 | 0.0 | 0.07 | 0.07 | 0.07 | 95 | 1018.0 |
| 20260901122024 | 65 | 0.0 | 0.0 | 0.02 | 0.02 | 0.02 | 95 | 1018.0 | |
| 20260901121024 | 65 | 131 | 0.0 | 1.0 | 0.00 | 0.00 | 0.00 | 95 | 1017.9 |
| 20260901120024 | 65 | 82 | 0.0 | 0.0 | 0.00 | 0.00 | 0.00 | 95 | 1018.0 |
| 20260901115025 | 65 | 87 | 0.0 | 1.0 | 0.00 | 0.00 | 0.00 | 95 | 1017.9 |
| 20260901114025 | 65 | 78 | 0.0 | 1.0 | 0.00 | 0.00 | 0.00 | 95 | 1018.0 |
| 20260901113024 | 65 | 0.0 | 0.0 | 0.00 | 0.00 | 0.00 | 95 | 1017.9 | |
| 20260901112025 | 65 | 0.0 | 0.0 | 0.00 | 0.00 | 0.00 | 94 | 1018.0 | |
| 20260901111025 | 65 | 0.0 | 0.0 | 0.00 | 0.00 | 0.00 | 94 | 1017.9 | |
| 20260901110025 | 65 | 127 | 0.0 | 1.0 | 0.00 | 0.00 | 0.00 | 94 | 1017.8 |
| 20260901105025 | 65 | 314 | 0.0 | 1.0 | 0.00 | 0.00 | 0.00 | 94 | 1017.8 |
| 20260901104026 | 65 | 161 | 0.0 | 1.0 | 0.00 | 0.00 | 0.00 | 94 | 1017.7 |
| 20260901103026 | 65 | 138 | 0.0 | 1.0 | 0.00 | 0.00 | 0.00 | 93 | 1017.6 |
| 20260901102046 | 65 | 74 | 0.0 | 1.0 | 0.00 | 0.00 | 0.00 | 93 | 1017.5 |
| 20260901101025 | 65 | 0.0 | 0.0 | 0.00 | 0.00 | 0.00 | 92 | 1017.5 | |
| 20260901100026 | 65 | 116 | 0.0 | 1.0 | 0.00 | 0.00 | 0.00 | 92 | 1017.4 |
| 20260901095026 | 65 | 102 | 0.0 | 1.0 | 0.00 | 0.00 | 0.00 | 91 | 1017.3 |
| 20260901094026 | 65 | 55 | 0.0 | 1.0 | 0.00 | 0.00 | 0.00 | 90 | 1017.4 |
| 20260901093026 | 65 | 0.0 | 0.0 | 0.00 | 0.00 | 0.00 | 89 | 1017.4 | |
| 20260901092026 | 66 | 171 | 0.0 | 0.0 | 0.00 | 0.00 | 0.00 | 88 | 1017.4 |
| 20260901091026 | 66 | 92 | 0.0 | 1.0 | 0.00 | 0.00 | 0.00 | 87 | 1017.4 |
| 20260901090027 | 66 | 130 | 0.0 | 2.0 | 0.00 | 0.00 | 0.00 | 87 | 1017.4 |
| 20260901085027 | 66 | 93 | 0.0 | 1.0 | 0.00 | 0.00 | 0.00 | 86 | 1017.4 |
| 20260901084027 | 66 | 0.0 | 0.0 | 0.00 | 0.00 | 0.00 | 84 | 1017.4 | |
| 20260901083107 | 66 | 98 | 0.0 | 2.0 | 0.00 | 0.00 | 0.00 | 83 | 1017.4 |
| 20260901082027 | 66 | 80 | 0.0 | 1.0 | 0.00 | 0.00 | 0.00 | 83 | 1017.5 |
| 20260901081027 | 66 | 103 | 1.0 | 2.0 | 0.00 | 0.00 | 0.00 | 82 | 1017.6 |
| 20260901080047 | 66 | 122 | 0.0 | 1.0 | 0.00 | 0.00 | 0.00 | 82 | 1017.6 |
| 20260901075028 | 67 | 98 | 1.0 | 2.0 | 0.00 | 0.00 | 0.00 | 82 | 1017.7 |
| 20260901074028 | 66 | 141 | 0.0 | 1.0 | 0.00 | 0.00 | 0.00 | 81 | 1017.8 |
| 20260901073048 | 66 | 95 | 1.0 | 2.0 | 0.00 | 0.00 | 0.00 | 81 | 1017.7 |
| 20260901072028 | 66 | 83 | 0.0 | 1.0 | 0.00 | 0.00 | 0.00 | 81 | 1017.9 |
| 20260901071028 | 66 | 80 | 0.0 | 0.0 | 0.00 | 0.00 | 0.00 | 81 | 1017.9 |
| 20260901070028 | 66 | 118 | 0.0 | 1.0 | 0.00 | 0.00 | 0.00 | 81 | 1017.9 |
| 20260901065028 | 66 | 123 | 0.0 | 1.0 | 0.00 | 0.00 | 0.00 | 81 | 1017.9 |
| 20260901064030 | 66 | 103 | 0.0 | 1.0 | 0.00 | 0.00 | 0.00 | 80 | 1017.9 |
| 20260901063029 | 66 | 132 | 0.0 | 2.0 | 0.00 | 0.00 | 0.00 | 80 | 1018.0 |
| 20260901062029 | 67 | 101 | 0.0 | 1.0 | 0.00 | 0.00 | 0.00 | 79 | 1018.1 |
| 20260901061029 | 67 | 210 | 0.0 | 1.0 | 0.00 | 0.00 | 0.00 | 78 | 1018.1 |
| 20260901060049 | 67 | 222 | 0.0 | 2.0 | 0.00 | 0.00 | 0.00 | 77 | 1018.1 |
| 20260901055029 | 67 | 107 | 0.0 | 1.0 | 0.00 | 0.00 | 0.00 | 77 | 1018.0 |
| 20260901054029 | 67 | 242 | 1.0 | 3.0 | 0.00 | 0.00 | 0.00 | 77 | 1018.0 |
| 20260901053029 | 67 | 125 | 0.0 | 1.0 | 0.00 | 0.00 | 0.00 | 76 | 1018.2 |
| 20260901052130 | 67 | 99 | 0.0 | 1.0 | 0.00 | 0.00 | 0.00 | 75 | 1018.0 |
| 20260901051030 | 68 | 100 | 1.0 | 2.0 | 0.00 | 0.00 | 0.00 | 73 | 1018.0 |
| 20260901050030 | 68 | 103 | 1.0 | 2.0 | 0.00 | 0.00 | 0.00 | 73 | 1018.1 |
| 20260901045052 | 68 | 123 | 1.0 | 1.0 | 0.00 | 0.00 | 0.00 | 73 | 1018.2 |
| 20260901044030 | 68 | 105 | 0.0 | 1.0 | 0.00 | 0.00 | 0.00 | 74 | 1018.2 |
| 20260901043030 | 68 | 115 | 1.0 | 2.0 | 0.00 | 0.00 | 0.00 | 74 | 1018.2 |
| 20260901042031 | 68 | 94 | 0.0 | 2.0 | 0.00 | 0.00 | 0.00 | 75 | 1018.1 |
| 20260901041030 | 68 | 112 | 1.0 | 2.0 | 0.00 | 0.00 | 0.00 | 75 | 1018.1 |
| 20260901040051 | 68 | 98 | 2.0 | 4.0 | 0.00 | 0.00 | 0.00 | 78 | 1018.2 |
| 20260901035030 | 68 | 89 | 1.0 | 2.0 | 0.00 | 0.00 | 0.00 | 80 | 1018.3 |
| 20260901034033 | 68 | 145 | 1.0 | 3.0 | 0.00 | 0.00 | 0.00 | 82 | 1018.4 |
| 20260901033031 | 68 | 79 | 1.0 | 2.0 | 0.00 | 0.00 | 0.00 | 82 | 1018.3 |
| 20260901032039 | 68 | 97 | 0.0 | 3.0 | 0.00 | 0.00 | 0.00 | 83 | 1018.3 |
| 20260901031016 | 68 | 78 | 1.0 | 2.0 | 0.00 | 0.00 | 0.00 | 82 | 1018.2 |
| 20260901030021 | 68 | 235 | 0.0 | 2.0 | 0.00 | 0.00 | 0.00 | 82 | 1018.2 |
| 20260901025040 | 68 | 89 | 1.0 | 2.0 | 0.00 | 0.00 | 0.00 | 82 | 1018.2 |
| 20260901024020 | 68 | 136 | 0.0 | 1.0 | 0.00 | 0.00 | 0.00 | 82 | 1018.2 |
| 20260901023057 | 69 | 98 | 0.0 | 2.0 | 0.00 | 0.00 | 0.00 | 81 | 1018.2 |
| 20260901022017 | 69 | 97 | 1.0 | 2.0 | 0.00 | 0.00 | 0.00 | 81 | 1018.2 |
| 20260901021017 | 69 | 84 | 1.0 | 2.0 | 0.00 | 0.00 | 0.00 | 80 | 1018.2 |
| 20260901020040 | 69 | 96 | 1.0 | 3.0 | 0.00 | 0.00 | 0.00 | 80 | 1018.2 |
| 20260901015017 | 69 | 95 | 1.0 | 4.0 | 0.00 | 0.00 | 0.00 | 79 | 1018.2 |
| 20260901014038 | 69 | 175 | 1.0 | 2.0 | 0.00 | 0.00 | 0.00 | 78 | 1018.3 |
| 20260901013018 | 69 | 87 | 1.0 | 3.0 | 0.00 | 0.00 | 0.00 | 77 | 1018.3 |
| 20260901012018 | 69 | 310 | 0.0 | 3.0 | 0.00 | 0.00 | 0.00 | 76 | 1018.3 |
| 20260901011018 | 70 | 14 | 0.0 | 2.0 | 0.00 | 0.00 | 0.00 | 75 | 1018.4 |
| 20260901010019 | 70 | 79 | 0.0 | 2.0 | 0.00 | 0.00 | 0.00 | 74 | 1018.3 |
| 20260901005018 | 69 | 99 | 1.0 | 4.0 | 0.00 | 0.00 | 0.00 | 73 | 1018.2 |
| 20260901004018 | 69 | 98 | 0.0 | 2.0 | 0.00 | 0.00 | 0.00 | 73 | 1018.0 |
| 20260901003039 | 69 | 85 | 1.0 | 2.0 | 0.00 | 0.00 | 0.00 | 73 | 1018.0 |
| 20260901002016 | 68 | 96 | 1.0 | 2.0 | 0.00 | 0.00 | 0.00 | 75 | 1017.9 |
| 20260901001019 | 67 | 100 | 1.0 | 2.0 | 0.00 | 0.00 | 0.00 | 80 | 1017.9 |
| 20260901000019 | 67 | 141 | 0.0 | 1.0 | 0.00 | 0.00 | 0.00 | 80 | 1017.9 |
| 20260831235039 | 67 | 192 | 0.0 | 1.0 | 0.00 | 0.00 | 0.00 | 80 | 1018.0 |
| 20260831234017 | 68 | 188 | 0.0 | 1.0 | 0.00 | 0.00 | 0.00 | 77 | 1018.2 |
| 20260831233037 | 69 | 128 | 0.0 | 1.0 | 0.00 | 0.00 | 0.00 | 74 | 1018.3 |
| 20260831232017 | 70 | 121 | 1.0 | 2.0 | 0.00 | 0.00 | 0.00 | 71 | 1018.3 |
| 20260831231100 | 71 | 120 | 0.0 | 1.0 | 0.00 | 0.00 | 0.00 | 69 | 1018.4 |